Погода в Кузьминских Отвержки

Россия / Липецкая область     52°41′32″N   39°28′18″E
темп.,
°C
ветер,
м/с
пор.,
м/с
влажн.,
%
обл.,
%
осадки,
мм/ч
давл.,
гПа
погр.,
м
13 апреля, вт
вт1300:00+13юв4136271 0.0 1026261
03:00+11вюв4116879 0.0 1026223
06:00+9вюв4967100 0.0 1027155
09:00+14юв594837 0.0 1026346
12:00+20юв6103345 0.0 10251221
15:00+21юв8122548 0.0 10242002
18:00+19юв612305 0.0 1023582
21:00+15юв614425 0.0 1023420
14 апреля, ср
ср1400:00+13юв5135199 0.0 1023332
03:00+11юв4858100 0.0 1023156
06:00+9вюв3763100 0.0 1022119
09:00+13юв5849100 0.0 1021357
12:00+17юв5733100 0.0 1020995
15:00+19юв68245 0.0 10182122
18:00+18юв5831100 0.0 1017402
21:00+14вюв4114598 0.0 1018255
15 апреля, чт
чт1500:00+12юв365399 0.0 1017101
03:00+11вюв3357100 0.0 101652
06:00+10юв2464100 0.0 101673
09:00+14ююв245799 0.0 1016435
12:00+18всв444185 0.0 1015827
15:00+18ююв2343100 0.0 10141889
18:00+15зсз236097 0.3 1014111
21:00+13ссв226151 0.4 101415
16 апреля, пт
пт1600:00+11св346848 0.0 101452
03:00+11з007159 0.1 101410
06:00+11св127285 0.0 101411
09:00+14ююз226098 0.0 1015367
12:00+15ююв345678 0.0 1016587
15:00+18юв454488 0.0 10151965
18:00+16ююз3455100 0.1 1015236
21:00+12ссз117365 6.4 101720
17 апреля, сб
сб1700:00+11ю018068 0.1 101711
03:00+10св3589100 0.1 101793
06:00+9св489198 0.0 1017190
09:00+13в61061100 0.0 1017508
12:00+18в7114494 0.0 10171391
15:00+17юв594882 0.1 10171024
18:00+13вюв257682 2.1 1019408
21:00+11юз128993 4.6 102196